Year,Month,Day,Hour,Minute,Value (Times are PST for temperature in C)
2018,02,22,06,36,-0.90
2018,02,22,06,37,-0.90
2018,02,22,06,38,-0.90
2018,02,22,06,39,-0.90
2018,02,22,06,40,-0.90
2018,02,22,06,41,-0.90
2018,02,22,07,10,-0.90
2018,02,22,07,11,-0.90
2018,02,22,07,12,-0.90
2018,02,22,07,13,-0.90
2018,02,22,07,14,-0.90
2018,02,22,07,15,-0.90
2018,02,22,07,16,-0.90
2018,02,22,07,17,-0.90
2018,02,22,07,18,-0.90
2018,02,22,07,19,-0.90
2018,02,22,07,20,-0.90
2018,02,22,07,21,-0.90
2018,02,22,07,22,-0.90
2018,02,22,07,23,-0.90
2018,02,22,07,24,-1.00
2018,02,22,07,25,-0.90
2018,02,22,07,26,-0.90
2018,02,22,07,27,-0.90
2018,02,22,07,28,-0.80
2018,02,22,07,29,-0.80
2018,02,22,07,47,-0.10
2018,02,22,07,48,-0.20
2018,02,22,07,49,-0.10
2018,02,22,07,50,-0.10
2018,02,22,07,51,-0.10
2018,02,22,07,52,-0.10
2018,02,22,07,53,-0.10
2018,02,22,07,54,-0.10
2018,02,22,07,55,-0.10
2018,02,22,07,56,0.00
2018,02,22,07,57,0.00
2018,02,22,07,58,0.00
2018,02,22,07,59,0.00
2018,02,22,08,00,0.00
2018,02,22,08,01,0.00
2018,02,22,08,02,0.00
2018,02,22,08,03,0.00
2018,02,22,08,04,0.00
2018,02,22,08,05,0.10
2018,02,22,08,06,0.10
2018,02,22,08,07,0.10
2018,02,22,08,08,0.10
2018,02,22,08,09,0.10
2018,02,22,08,10,0.10
2018,02,22,08,11,0.10
2018,02,22,08,12,0.10
2018,02,22,08,26,0.40
2018,02,22,08,27,0.40
2018,02,22,08,28,0.40
2018,02,22,08,29,0.40
2018,02,22,08,30,0.40
2018,02,22,08,31,0.50
2018,02,22,08,32,0.50
2018,02,22,08,33,0.50
2018,02,22,08,34,0.50
2018,02,22,08,35,0.50
2018,02,22,08,36,0.50
2018,02,22,08,37,0.50
2018,02,22,08,38,0.50
2018,02,22,08,39,0.50
2018,02,22,08,40,0.50
2018,02,22,08,41,0.50
2018,02,22,08,42,0.50
2018,02,22,08,43,0.60
2018,02,22,08,44,0.60
2018,02,22,08,45,0.60
2018,02,22,08,46,0.60
2018,02,22,08,47,0.60
2018,02,22,08,48,0.60
2018,02,22,08,49,0.60
2018,02,22,08,50,0.60
2018,02,22,08,51,0.60
2018,02,22,08,52,0.60
2018,02,22,08,53,0.60
2018,02,22,08,54,0.60
2018,02,22,08,55,0.60
2018,02,22,08,56,0.60
2018,02,22,08,57,0.60
2018,02,22,08,58,0.60
2018,02,22,08,59,0.60
2018,02,22,09,00,0.70
2018,02,22,09,01,0.70
2018,02,22,09,02,0.70
2018,02,22,09,03,0.70
2018,02,22,09,04,0.70
2018,02,22,09,05,0.70
2018,02,22,09,06,0.70
2018,02,22,09,07,0.70
2018,02,22,09,08,0.70
2018,02,22,09,09,0.70
2018,02,22,09,10,0.70
2018,02,22,09,11,0.70
2018,02,22,09,12,0.70
2018,02,22,09,13,0.70
2018,02,22,09,14,0.70
2018,02,22,09,15,0.70
2018,02,22,09,16,0.70
2018,02,22,09,17,0.70
2018,02,22,09,18,0.70
2018,02,22,09,19,0.70
2018,02,22,09,20,0.70
2018,02,22,09,21,0.70
2018,02,22,09,22,0.70
2018,02,22,09,23,0.70
2018,02,22,09,24,0.70
2018,02,22,09,25,0.70
2018,02,22,09,26,0.80
2018,02,22,09,27,0.80
2018,02,22,09,28,0.80
2018,02,22,09,29,0.80
2018,02,22,09,30,0.80
2018,02,22,09,31,0.90
2018,02,22,09,32,0.90
2018,02,22,09,33,0.90
2018,02,22,09,34,0.90
2018,02,22,09,35,0.90
2018,02,22,09,36,0.90
2018,02,22,09,37,1.00
2018,02,22,09,38,1.00
2018,02,22,09,39,1.00
2018,02,22,09,40,1.00
2018,02,22,09,41,1.10
2018,02,22,09,42,1.10
2018,02,22,09,43,1.10
2018,02,22,09,44,1.20
2018,02,22,09,45,1.20
2018,02,22,09,46,1.20
2018,02,22,09,47,1.20
2018,02,22,09,48,1.20
2018,02,22,09,49,1.20
2018,02,22,09,50,1.20
2018,02,22,09,51,1.20
2018,02,22,09,52,1.20
2018,02,22,09,53,1.20
2018,02,22,09,54,1.20
2018,02,22,09,55,1.20
2018,02,22,09,56,1.20
2018,02,22,09,57,1.20
2018,02,22,09,58,1.20
2018,02,22,09,59,1.20
2018,02,22,10,00,1.20
2018,02,22,10,01,1.20
2018,02,22,10,02,1.20
2018,02,22,10,03,1.20
2018,02,22,10,04,1.20
2018,02,22,10,05,1.20
2018,02,22,10,06,1.20
2018,02,22,10,07,1.20
2018,02,22,10,08,1.30
2018,02,22,10,09,1.30
2018,02,22,10,10,1.30
2018,02,22,10,11,1.30
2018,02,22,10,12,1.20
2018,02,22,10,13,1.20
2018,02,22,10,14,1.20
2018,02,22,10,15,1.20
2018,02,22,10,16,1.20
2018,02,22,10,17,1.20
2018,02,22,10,18,1.20
2018,02,22,10,19,1.20
2018,02,22,10,20,1.20
2018,02,22,10,21,1.20
2018,02,22,10,22,1.20
2018,02,22,10,23,1.20
2018,02,22,10,24,1.20
2018,02,22,10,25,1.20
2018,02,22,10,26,1.20
2018,02,22,10,27,1.30
2018,02,22,10,28,1.30
2018,02,22,10,29,1.30
2018,02,22,10,30,1.30
2018,02,22,10,31,1.30
2018,02,22,10,32,1.30
2018,02,22,10,33,1.30
2018,02,22,10,34,1.30
2018,02,22,10,35,1.30
2018,02,22,10,36,1.30
2018,02,22,10,37,1.30
2018,02,22,10,38,1.30
2018,02,22,10,39,1.30
2018,02,22,10,40,1.30
2018,02,22,10,41,1.20
2018,02,22,10,42,1.20
2018,02,22,10,43,1.20
2018,02,22,10,44,1.20
2018,02,22,10,45,1.20
2018,02,22,10,46,1.20
2018,02,22,10,47,1.20
2018,02,22,10,48,1.20
2018,02,22,10,49,1.20
2018,02,22,10,50,1.30
2018,02,22,10,51,1.30
2018,02,22,10,52,1.30
2018,02,22,10,53,1.30
2018,02,22,10,54,1.30
2018,02,22,10,55,1.30
2018,02,22,10,56,1.30
2018,02,22,10,57,1.30
2018,02,22,10,58,1.30
2018,02,22,10,59,1.30
2018,02,22,11,00,1.30
2018,02,22,11,01,1.30
2018,02,22,11,02,1.30
2018,02,22,11,03,1.30
2018,02,22,11,04,1.30
2018,02,22,11,05,1.30
2018,02,22,11,06,1.40
2018,02,22,11,07,1.40
2018,02,22,11,08,1.30
2018,02,22,11,09,1.30
2018,02,22,11,10,1.30
2018,02,22,11,11,1.30
2018,02,22,11,12,1.30
2018,02,22,11,13,1.30
2018,02,22,11,14,1.30
2018,02,22,11,15,1.30
2018,02,22,11,16,1.30
2018,02,22,11,17,1.30
2018,02,22,11,18,1.40
2018,02,22,11,19,1.40
2018,02,22,11,20,1.40
2018,02,22,11,21,1.40
2018,02,22,11,22,1.40
2018,02,22,11,23,1.40
2018,02,22,11,24,1.40
2018,02,22,11,25,1.40
2018,02,22,11,26,1.40
2018,02,22,11,27,1.40
2018,02,22,11,28,1.40
2018,02,22,11,29,1.40
2018,02,22,11,30,1.50
2018,02,22,11,31,1.50
2018,02,22,11,32,1.50
2018,02,22,11,33,1.50
2018,02,22,11,34,1.60
2018,02,22,11,35,1.60
2018,02,22,11,36,1.60
2018,02,22,11,37,1.60
2018,02,22,11,38,1.60
2018,02,22,11,39,1.60
2018,02,22,11,40,1.60
2018,02,22,11,41,1.60
2018,02,22,11,42,1.60
2018,02,22,11,43,1.70
2018,02,22,11,44,1.70
2018,02,22,11,45,1.70
2018,02,22,11,46,1.70
2018,02,22,11,47,1.80
2018,02,22,11,48,1.80
2018,02,22,11,49,1.80
2018,02,22,11,50,1.80
2018,02,22,11,51,1.80
2018,02,22,11,52,1.80
2018,02,22,11,53,1.80
2018,02,22,11,54,1.80
2018,02,22,11,55,1.70
2018,02,22,11,56,1.70
2018,02,22,11,57,1.70
2018,02,22,11,58,1.70
2018,02,22,11,59,1.80
2018,02,22,12,00,1.80
2018,02,22,12,01,1.80
2018,02,22,12,02,1.80
2018,02,22,12,03,1.80
2018,02,22,12,04,1.80
2018,02,22,12,05,1.80
2018,02,22,12,06,1.90
2018,02,22,12,07,1.90
2018,02,22,12,08,1.90
2018,02,22,12,09,1.90
2018,02,22,12,10,1.90
2018,02,22,12,11,1.90
2018,02,22,12,12,1.90
2018,02,22,12,13,1.90
2018,02,22,12,14,1.90
2018,02,22,12,15,1.90
2018,02,22,12,16,1.90
2018,02,22,12,17,1.90
2018,02,22,12,18,1.80
2018,02,22,12,19,1.80
2018,02,22,12,20,1.80
2018,02,22,12,21,1.80
2018,02,22,12,22,1.80
2018,02,22,12,23,1.80
2018,02,22,12,24,1.80
2018,02,22,12,25,1.80
2018,02,22,12,26,1.80
2018,02,22,12,27,1.80
2018,02,22,12,28,1.80
2018,02,22,12,29,1.80
2018,02,22,12,30,1.80
2018,02,22,12,31,1.80
2018,02,22,12,32,1.80
2018,02,22,12,33,1.80
2018,02,22,12,34,1.80
2018,02,22,12,35,1.90
2018,02,22,12,36,1.90
2018,02,22,12,37,1.90
2018,02,22,12,38,1.90
2018,02,22,12,39,1.80
2018,02,22,12,40,1.80
2018,02,22,12,41,1.80
2018,02,22,12,42,1.80
2018,02,22,12,43,1.80
2018,02,22,12,44,1.80
2018,02,22,12,45,1.80
2018,02,22,12,46,1.80
2018,02,22,12,47,1.80
2018,02,22,12,48,1.80
2018,02,22,12,49,1.80
2018,02,22,12,50,1.80
2018,02,22,12,51,1.80
2018,02,22,12,52,1.90
2018,02,22,12,53,1.90
2018,02,22,12,54,1.90
2018,02,22,12,55,1.90
2018,02,22,12,56,1.90
2018,02,22,12,57,1.90
2018,02,22,12,58,1.90
2018,02,22,12,59,2.00
2018,02,22,13,00,2.00
2018,02,22,13,01,2.00
2018,02,22,13,02,2.10
2018,02,22,13,03,2.10
2018,02,22,13,04,2.10
2018,02,22,13,05,2.10
2018,02,22,13,06,2.10
2018,02,22,13,07,2.10
2018,02,22,13,08,2.10
2018,02,22,13,09,2.10
2018,02,22,13,10,2.10
2018,02,22,13,11,2.00
2018,02,22,13,12,2.00
2018,02,22,13,13,2.00
2018,02,22,13,14,2.00
2018,02,22,13,15,2.10
2018,02,22,13,16,2.10
2018,02,22,13,17,2.10
2018,02,22,13,18,2.10
2018,02,22,13,19,2.10
2018,02,22,13,20,2.10
2018,02,22,13,21,2.10
2018,02,22,13,22,2.10
2018,02,22,13,23,2.10
2018,02,22,13,24,2.10
2018,02,22,13,25,2.10
2018,02,22,13,26,2.10
2018,02,22,13,27,2.10
2018,02,22,13,28,2.10
2018,02,22,13,29,2.20
2018,02,22,13,30,2.20
2018,02,22,13,31,2.20
2018,02,22,13,32,2.30
2018,02,22,13,33,2.30
2018,02,22,13,34,2.30
2018,02,22,13,35,2.30
2018,02,22,13,36,2.30
2018,02,22,13,37,2.30
2018,02,22,13,38,2.30
2018,02,22,13,39,2.30
2018,02,22,13,40,2.30
2018,02,22,13,41,2.30
2018,02,22,13,42,2.30
2018,02,22,13,43,2.30
2018,02,22,13,44,2.20
2018,02,22,13,45,2.20
2018,02,22,13,46,2.10
2018,02,22,13,47,2.10
2018,02,22,13,48,2.10
2018,02,22,13,49,2.10
2018,02,22,13,50,2.20
2018,02,22,13,51,2.20
2018,02,22,13,52,2.30
2018,02,22,13,53,2.30
2018,02,22,13,54,2.30
2018,02,22,13,55,2.30
2018,02,22,13,56,2.30
2018,02,22,13,57,2.30
2018,02,22,13,58,2.30
2018,02,22,13,59,2.30
2018,02,22,14,00,2.30
2018,02,22,14,01,2.30
2018,02,22,14,02,2.30
2018,02,22,14,03,2.30
2018,02,22,14,04,2.30
2018,02,22,14,05,2.30
2018,02,22,14,06,2.30
2018,02,22,14,07,2.30
2018,02,22,14,08,2.30
2018,02,22,14,09,2.40
2018,02,22,14,10,2.40
2018,02,22,14,11,2.40
2018,02,22,14,12,2.40
2018,02,22,14,13,2.40
2018,02,22,14,14,2.40
2018,02,22,14,15,2.40
2018,02,22,14,16,2.50
2018,02,22,14,17,2.40
2018,02,22,14,18,2.40
2018,02,22,14,19,2.40
2018,02,22,14,20,2.40
2018,02,22,14,21,2.50
2018,02,22,14,22,2.50
2018,02,22,14,23,2.50
2018,02,22,14,24,2.40
2018,02,22,14,25,2.40
2018,02,22,14,26,2.40
2018,02,22,14,27,2.30
2018,02,22,14,28,2.30
2018,02,22,14,29,2.30
2018,02,22,14,30,2.30
2018,02,22,14,31,2.40
2018,02,22,14,32,2.40
2018,02,22,14,33,2.40
2018,02,22,14,34,2.40
2018,02,22,14,35,2.40
2018,02,22,14,36,2.40
2018,02,22,14,37,2.40
2018,02,22,14,38,2.40
2018,02,22,14,39,2.40
2018,02,22,14,40,2.40
2018,02,22,14,41,2.50
2018,02,22,14,42,2.50
2018,02,22,14,43,2.50
2018,02,22,14,44,2.60
2018,02,22,14,45,2.60
2018,02,22,14,46,2.60
2018,02,22,14,47,2.60
2018,02,22,14,48,2.70
2018,02,22,14,49,2.70
2018,02,22,14,50,2.70
2018,02,22,14,51,2.70
2018,02,22,14,52,2.70
2018,02,22,14,53,2.70
2018,02,22,14,54,2.70
2018,02,22,14,55,2.60
2018,02,22,14,56,2.70
2018,02,22,14,57,2.70
2018,02,22,14,58,2.70
2018,02,22,14,59,2.70
2018,02,22,15,00,2.70
2018,02,22,15,01,2.70
2018,02,22,15,02,2.70
2018,02,22,15,03,2.80
2018,02,22,15,04,2.80
2018,02,22,15,05,2.70
2018,02,22,15,06,2.70
2018,02,22,15,07,2.70
2018,02,22,15,08,2.70
2018,02,22,15,09,2.70
2018,02,22,15,10,2.70
2018,02,22,15,11,2.70
2018,02,22,15,12,2.70
2018,02,22,15,13,2.70
2018,02,22,15,14,2.70
2018,02,22,15,15,2.70
2018,02,22,15,16,2.70
2018,02,22,15,17,2.70
2018,02,22,15,18,2.70
2018,02,22,15,19,2.70
2018,02,22,15,20,2.70
2018,02,22,15,21,2.70
2018,02,22,15,22,2.70
2018,02,22,15,23,2.70
2018,02,22,15,24,2.80
2018,02,22,15,25,2.80
2018,02,22,15,26,2.80
2018,02,22,15,27,2.80
2018,02,22,15,28,2.80
2018,02,22,15,29,2.80
2018,02,22,15,30,2.80
2018,02,22,15,31,2.80
2018,02,22,15,32,2.80
2018,02,22,15,33,2.90
2018,02,22,15,34,2.90
2018,02,22,15,35,2.90
2018,02,22,15,36,2.80
2018,02,22,15,37,2.80
2018,02,22,15,38,2.80
2018,02,22,15,39,2.80
2018,02,22,15,40,2.80
2018,02,22,15,41,2.90
2018,02,22,15,42,2.90
2018,02,22,15,43,2.90
2018,02,22,15,44,2.90
2018,02,22,15,45,2.90
2018,02,22,15,46,2.80
2018,02,22,15,47,2.80
2018,02,22,15,48,2.80
2018,02,22,15,49,2.80
2018,02,22,15,50,2.80
2018,02,22,15,51,2.80
2018,02,22,15,52,2.80
2018,02,22,15,53,2.80
2018,02,22,15,54,2.80
2018,02,22,15,55,2.80
2018,02,22,15,56,2.80
2018,02,22,15,57,2.80
2018,02,22,15,58,2.80
2018,02,22,15,59,2.90
2018,02,22,16,00,2.90
2018,02,22,16,01,2.90
2018,02,22,16,02,2.90
2018,02,22,16,03,2.90
2018,02,22,16,04,2.90
2018,02,22,16,05,2.90
2018,02,22,16,06,2.90
2018,02,22,16,07,2.90
2018,02,22,16,08,2.90
2018,02,22,16,09,2.90
2018,02,22,16,10,2.90
2018,02,22,16,11,2.90
2018,02,22,16,12,2.90
2018,02,22,16,13,2.90
2018,02,22,16,14,2.90
2018,02,22,16,15,2.90
2018,02,22,16,16,2.90
2018,02,22,16,17,2.90
2018,02,22,16,18,2.90
2018,02,22,16,19,2.80
2018,02,22,16,20,2.80
2018,02,22,16,21,2.80
2018,02,22,16,22,2.80
2018,02,22,16,23,2.80
2018,02,22,16,24,2.80
2018,02,22,16,25,2.80
2018,02,22,16,26,2.80
2018,02,22,16,27,2.80
2018,02,22,16,28,2.80
2018,02,22,16,29,2.80
2018,02,22,16,30,2.80
2018,02,22,16,31,2.80
2018,02,22,16,32,2.80
2018,02,22,16,33,2.80
2018,02,22,16,34,2.80
2018,02,22,16,35,2.80
2018,02,22,16,36,2.80
2018,02,22,16,37,2.80
2018,02,22,16,38,2.80
2018,02,22,16,39,2.80
2018,02,22,16,40,2.80
2018,02,22,16,41,2.90
2018,02,22,16,42,2.90
2018,02,22,16,43,2.90
2018,02,22,16,44,2.90
2018,02,22,16,45,2.80
2018,02,22,16,46,2.80
2018,02,22,16,47,2.80
2018,02,22,16,48,2.80
2018,02,22,16,49,2.80
2018,02,22,16,50,2.80
2018,02,22,16,51,2.80
2018,02,22,16,52,2.80
2018,02,22,16,53,2.70
2018,02,22,16,54,2.70
2018,02,22,16,55,2.70
2018,02,22,16,56,2.70
2018,02,22,16,57,2.70
2018,02,22,16,58,2.70
2018,02,22,16,59,2.70
2018,02,22,17,00,2.70
2018,02,22,17,01,2.70
2018,02,22,17,02,2.70
2018,02,22,17,03,2.70
2018,02,22,17,04,2.70
2018,02,22,17,05,2.70
2018,02,22,17,06,2.70
2018,02,22,17,07,2.70
2018,02,22,17,08,2.70
2018,02,22,17,09,2.70
2018,02,22,17,10,2.60
2018,02,22,17,11,2.60
2018,02,22,17,12,2.60
2018,02,22,17,13,2.60
2018,02,22,17,14,2.60
2018,02,22,17,15,2.50
2018,02,22,17,16,2.50
2018,02,22,17,17,2.50
2018,02,22,17,18,2.40
2018,02,22,17,19,2.40
2018,02,22,17,20,2.40
2018,02,22,17,21,2.40
2018,02,22,17,22,2.30
2018,02,22,17,23,2.30
2018,02,22,17,24,2.30
2018,02,22,17,25,2.30
2018,02,22,17,26,2.30
2018,02,22,17,27,2.30
2018,02,22,17,28,2.30
2018,02,22,17,29,2.20
2018,02,22,17,30,2.20
2018,02,22,17,31,2.20
2018,02,22,17,32,2.20
2018,02,22,17,33,2.10
2018,02,22,17,34,2.10
2018,02,22,17,35,2.10
2018,02,22,17,36,2.10
2018,02,22,17,37,2.00
2018,02,22,17,38,2.00
2018,02,22,17,39,2.00
2018,02,22,17,40,1.90
2018,02,22,17,41,1.90
2018,02,22,17,42,1.90
2018,02,22,17,43,1.80
2018,02,22,17,44,1.80
2018,02,22,17,45,1.80
2018,02,22,17,46,1.70
2018,02,22,17,47,1.70
2018,02,22,17,48,1.60
2018,02,22,17,49,1.60
2018,02,22,17,50,1.60
2018,02,22,17,51,1.50
2018,02,22,17,52,1.50
2018,02,22,17,53,1.40
2018,02,22,17,54,1.40
2018,02,22,17,55,1.40
2018,02,22,17,56,1.40
2018,02,22,17,57,1.30
2018,02,22,17,58,1.30
2018,02,22,17,59,1.30
2018,02,22,18,00,1.30
2018,02,22,18,01,1.30
2018,02,22,18,02,1.30
2018,02,22,18,03,1.30
2018,02,22,18,04,1.30
2018,02,22,18,05,1.20
2018,02,22,18,06,1.20
2018,02,22,18,07,1.20
2018,02,22,18,08,1.20
2018,02,22,18,09,1.20
2018,02,22,18,10,1.20
2018,02,22,18,11,1.20
2018,02,22,18,12,1.10
2018,02,22,18,13,1.10
2018,02,22,18,14,1.10
2018,02,22,18,15,1.10
2018,02,22,18,16,1.00
2018,02,22,18,17,1.00
2018,02,22,18,18,0.90
2018,02,22,18,19,0.90
2018,02,22,18,20,0.90
2018,02,22,18,21,0.80
2018,02,22,18,22,0.80
2018,02,22,18,23,0.80
2018,02,22,18,24,0.70
2018,02,22,18,25,0.70
2018,02,22,18,26,0.70
2018,02,22,18,27,0.60
2018,02,22,18,28,0.60
2018,02,22,18,29,0.60
2018,02,22,18,30,0.60
2018,02,22,18,31,0.50
2018,02,22,18,32,0.50
2018,02,22,18,33,0.50
2018,02,22,18,34,0.40
2018,02,22,18,35,0.40
2018,02,22,18,36,0.40
2018,02,22,18,37,0.40
2018,02,22,18,38,0.40
2018,02,22,18,39,0.40
2018,02,22,18,40,0.40
2018,02,22,18,41,0.40
2018,02,22,18,42,0.50
2018,02,22,18,43,0.50
2018,02,22,18,44,0.50
2018,02,22,18,45,0.50
2018,02,22,18,46,0.50
2018,02,22,18,47,0.50
2018,02,22,18,48,0.50
2018,02,22,18,49,0.50
2018,02,22,18,50,0.50
2018,02,22,18,51,0.50
2018,02,22,18,52,0.40
2018,02,22,18,53,0.40
2018,02,22,18,54,0.40
2018,02,22,18,55,0.40
2018,02,22,18,56,0.40
2018,02,22,18,57,0.40
2018,02,22,18,58,0.40
2018,02,22,18,59,0.40
2018,02,22,19,00,0.40
2018,02,22,19,01,0.40
2018,02,22,19,02,0.40
2018,02,22,19,03,0.40
2018,02,22,19,04,0.30
2018,02,22,19,05,0.30
2018,02,22,19,06,0.30
2018,02,22,19,07,0.30
2018,02,22,19,08,0.30
2018,02,22,19,09,0.30
2018,02,22,19,10,0.30
2018,02,22,19,11,0.30
2018,02,22,19,12,0.30
2018,02,22,19,13,0.30
2018,02,22,19,14,0.30
2018,02,22,19,15,0.30
2018,02,22,19,16,0.30
2018,02,22,19,17,0.30
2018,02,22,19,18,0.30
2018,02,22,19,19,0.20
2018,02,22,19,20,0.20
2018,02,22,19,21,0.20
2018,02,22,19,22,0.20
2018,02,22,19,23,0.20
2018,02,22,19,24,0.10
2018,02,22,19,25,0.10
2018,02,22,19,26,0.10
2018,02,22,19,27,0.10
2018,02,22,19,28,0.00
2018,02,22,19,29,0.00
2018,02,22,19,30,0.00
2018,02,22,19,31,-0.10
2018,02,22,19,32,-0.10
2018,02,22,19,33,-0.10
2018,02,22,19,34,-0.10
2018,02,22,19,35,-0.20
2018,02,22,19,36,-0.20
2018,02,22,19,37,-0.20
2018,02,22,19,38,-0.20
2018,02,22,19,39,-0.20
2018,02,22,19,40,-0.30
2018,02,22,19,41,-0.30
2018,02,22,19,42,-0.30
2018,02,22,19,43,-0.30
2018,02,22,19,44,-0.30
2018,02,22,19,45,-0.30
